Wind_Speed
14 14 13 13 13 12 9 8 8 8 8 7 7 7 7 6 5 4 4 4 4 4 3 3 3 4 4 5 5 5 5 6 7 8 8 10 10 9 11 12 11 11 11 11 12 11 11 11 10
15 14 14 14 14 10 9 9 9 8 8 8 8 7 7 6 6 5 4 4 3 3 3 3 3 4 4 4 5 5 6 6 7 8 8 9 10 10 10 11 11 12 12 12 11 11 11 10 10
15 15 15 15 12 10 10 10 9 9 9 8 8 8 7 6 6 5 4 3 3 3 2 2 2 3 4 5 5 5 6 6 7 9 9 9 10 10 11 11 11 12 11 11 10 11 11 10 9
15 15 17 15 12 11 11 10 10 10 9 8 8 8 7 6 5 5 4 4 3 3 2 1 2 3 4 4 4 4 6 7 7 8 8 8 9 10 11 12 12 12 11 10 10 11 11 9 9
16 17 18 14 13 12 11 11 11 10 10 9 8 8 7 6 5 5 5 4 4 3 2 1 2 3 3 4 4 4 6 7 7 7 8 9 9 10 11 12 12 11 10 10 10 10 10 10 10
16 18 16 14 13 13 12 12 11 11 11 10 9 8 8 7 6 5 5 5 4 4 3 2 3 3 3 3 3 4 5 6 7 7 8 8 9 10 11 12 11 11 10 9 9 10 10 10 10
16 17 15 14 13 13 13 13 13 12 11 10 9 8 8 7 7 6 5 5 5 5 4 4 3 3 3 3 2 4 5 5 6 7 8 8 9 10 11 11 11 10 10 9 9 9 9 10 11
14 16 14 13 13 13 13 13 13 12 12 11 10 9 9 8 7 6 6 5 5 4 4 4 3 3 3 2 3 4 5 6 7 7 8 9 9 9 9 10 10 10 10 10 10 10 11 10 10
14 15 12 13 13 13 12 13 13 13 12 12 11 10 10 9 8 7 7 6 6 5 4 4 4 3 3 2 2 4 6 6 7 8 8 8 9 9 9 11 11 11 10 11 10 10 11 10 10
13 13 12 13 13 13 13 13 13 13 13 13 12 11 10 10 9 8 8 7 6 6 5 4 3 3 3 3 3 4 6 7 7 7 8 9 9 10 10 12 12 11 10 10 11 9 10 10 10
11 12 12 13 13 13 13 13 13 14 14 13 12 11 10 10 9 9 8 8 7 6 6 4 4 4 3 4 5 5 5 6 7 7 8 9 10 10 10 11 10 10 10 10 9 9 9 9 9
9 10 11 12 12 13 13 13 13 14 14 13 13 12 11 10 10 9 9 8 8 7 6 6 5 4 4 5 6 6 5 5 7 8 9 10 11 10 10 11 10 9 9 8 7 8 8 8 8
7 8 9 10 11 12 12 12 12 13 13 13 13 12 11 11 10 10 9 9 8 8 7 6 6 5 5 6 7 7 6 7 7 7 9 10 10 10 11 10 10 9 8 8 7 7 8 8 8
5 6 7 8 9 10 11 12 12 13 13 13 12 12 11 10 10 9 9 9 9 8 7 6 7 6 7 7 7 7 7 7 8 8 9 9 10 9 8 8 9 8 8 8 7 7 7 8 8
4 5 5 5 7 9 9 11 11 12 12 12 12 11 11 10 10 9 9 9 9 8 7 7 7 7 7 7 7 7 7 7 8 8 8 9 8 8 7 7 7 7 7 7 7 6 6 6 7
3 4 3 3 4 6 8 9 10 10 11 11 11 11 11 10 9 9 9 9 9 8 7 7 7 7 7 7 7 6 7 7 7 7 7 7 7 6 6 6 6 6 6 7 6 6 6 5 6
2 1 0 1 2 4 6 7 8 9 9 10 11 11 11 10 9 8 9 9 9 8 8 7 7 7 6 6 7 7 7 6 6 6 6 6 6 6 6 5 5 5 6 6 5 5 5 4 4
5 4 3 2 2 3 4 6 7 7 8 9 10 10 10 10 9 8 8 8 8 8 7 7 7 7 6 6 6 6 7 7 6 5 6 6 6 5 5 5 4 4 4 4 4 4 4 4 4
8 6 5 5 4 3 4 4 6 7 7 7 9 9 9 9 9 8 7 7 7 7 7 6 6 6 6 6 5 5 6 6 5 5 5 5 5 5 4 4 4 3 3 3 4 4 4 5 4
10 8 7 7 5 4 4 4 5 6 6 7 7 8 8 7 7 7 7 7 6 6 6 6 5 5 5 5 5 5 5 5 5 4 3 3 3 3 4 3 3 3 2 2 2 3 3 4 4
11 9 9 9 7 6 5 5 6 6 6 6 7 6 7 7 6 6 6 6 6 6 5 5 4 4 4 4 5 5 4 4 4 3 3 3 2 2 3 3 3 3 2 2 2 2 2 3 4
13 12 10 9 7 7 6 5 6 6 6 7 6 5 6 6 5 5 5 5 5 5 5 4 4 3 3 4 4 4 4 3 3 2 2 2 2 3 2 2 3 3 3 3 3 3 3 3 3
16 15 13 12 10 8 8 6 7 6 6 6 6 5 5 5 5 4 4 4 4 4 4 4 3 3 3 3 3 3 3 2 2 1 0 1 3 3 4 3 4 4 4 4 4 4 4 5 5
19 17 16 14 11 11 9 9 8 8 7 7 7 7 6 6 4 4 4 3 3 2 3 3 3 2 2 2 2 2 2 2 1 1 1 2 3 3 3 4 4 5 5 5 5 6 6 6 7
20 17 16 14 13 13 11 10 9 9 8 8 8 8 8 7 5 4 4 3 3 2 2 2 2 1 1 1 1 1 1 1 2 2 2 3 3 3 4 4 5 6 6 6 6 7 7 7 7
21 19 18 16 15 14 14 13 11 10 9 9 8 8 8 7 6 6 6 5 5 4 4 4 3 3 3 2 2 3 3 3 3 3 4 4 3 4 4 5 6 6 7 7 7 8 8 8 8
23 22 20 19 17 16 16 15 13 12 11 11 10 9 9 9 8 8 7 7 7 7 6 6 6 5 5 5 5 5 5 5 5 5 5 5 5 5 6 6 7 8 8 8 9 10 10 10 11
25 24 22 21 20 18 17 16 15 14 12 12 12 11 10 10 10 9 9 9 9 9 9 8 8 8 7 7 7 7 7 7 7 7 6 6 6 7 7 8 9 9 9 9 10 10 11 12 12
27 26 25 23 22 20 18 17 15 15 14 13 12 12 12 12 12 12 12 13 12 11 11 11 10 10 10 9 9 9 9 9 9 9 9 9 9 9 9 9 10 10 10 11 11 12 13 14 14
28 27 26 25 24 22 20 18 16 16 15 15 14 14 14 14 14 14 14 14 13 13 13 13 12 12 12 12 12 12 12 12 11 11 12 12 12 12 11 11 12 12 12 12 13 14 15 16 16
Wind_Direction
75 73 72 75 73 68 73 79 82 83 87 91 92 94 96 95 96 102 107 110 117 121 114 121 132 148 164 168 167 171 171 164 161 153 157 157 154 155 162 167 166 166 166 166 167 168 168 170 169
75 73 73 73 73 69 70 76 80 82 83 85 87 88 90 89 89 95 101 109 118 114 108 126 147 156 164 167 172 173 172 163 164 157 154 156 156 157 166 168 164 163 163 167 168 163 164 168 168
75 72 72 71 73 74 73 74 77 79 80 81 82 83 84 87 91 88 88 100 105 100 104 119 151 167 166 166 171 172 172 167 169 167 159 155 160 161 165 168 163 161 163 169 167 162 163 166 165
74 75 71 70 70 70 71 71 73 75 77 78 78 77 79 81 83 86 87 89 89 87 94 117 161 165 173 178 174 175 168 168 169 168 163 163 166 165 165 163 160 160 161 163 166 165 166 170 169
73 74 68 66 67 66 67 69 70 70 71 72 73 72 71 73 79 84 79 82 83 82 85 127 174 173 171 173 170 167 164 166 167 165 163 160 164 165 162 160 155 156 159 165 165 171 170 171 174
74 73 72 69 66 64 65 67 69 68 68 67 68 70 68 68 69 72 71 72 71 74 83 114 147 157 158 154 154 152 158 164 166 164 161 164 164 166 161 158 155 152 156 161 167 171 165 167 172
76 75 71 68 65 61 61 64 67 67 67 65 64 63 62 62 63 65 66 64 64 69 83 105 132 143 150 154 163 158 165 164 166 161 162 163 166 163 161 161 158 154 154 159 165 167 165 168 173
78 74 66 66 63 60 58 59 62 63 63 63 62 58 56 59 63 65 66 65 64 65 78 92 99 111 119 127 140 154 157 163 160 158 161 158 160 158 157 159 159 157 154 153 159 163 164 168 172
77 71 66 67 65 60 57 56 58 58 59 60 59 58 58 60 64 67 69 69 65 64 71 87 93 93 100 115 112 143 152 152 154 156 160 158 155 157 158 159 159 155 152 152 154 154 161 165 167
79 75 69 67 66 62 57 56 55 55 55 56 56 56 57 59 61 64 67 67 65 67 70 81 92 104 107 113 115 123 137 143 144 157 162 167 166 156 149 154 153 152 153 154 152 155 160 170 168
78 76 70 65 64 61 58 54 52 52 51 50 51 51 53 56 58 59 62 64 65 69 68 73 88 97 102 114 123 123 118 124 136 146 153 158 155 151 151 154 152 155 158 154 149 153 161 170 175
75 71 68 63 62 62 57 53 50 49 48 48 48 49 51 55 56 58 59 60 63 64 68 71 85 89 93 116 126 123 128 128 130 137 144 151 153 150 150 153 153 154 154 155 152 156 158 165 168
77 69 65 61 62 61 55 52 49 47 46 46 45 48 51 55 56 57 58 58 58 63 71 75 81 90 94 108 118 119 129 133 133 139 146 149 149 146 149 151 150 152 154 157 159 163 162 167 173
89 75 68 64 60 58 52 48 45 44 43 43 44 44 46 51 51 53 56 57 59 61 68 74 81 90 95 104 115 119 125 128 130 134 137 140 141 142 146 151 155 154 153 158 162 162 169 178 180
103 85 75 66 57 50 49 44 40 38 39 39 40 38 41 46 50 54 55 57 62 66 71 78 85 89 93 101 112 116 119 118 123 130 134 141 140 139 146 153 157 161 164 166 165 166 171 180 184
130 84 64 58 49 37 38 33 30 31 33 34 35 35 39 45 48 52 53 55 60 65 73 80 88 89 93 99 109 117 118 121 124 133 136 139 143 144 145 148 150 158 165 163 170 174 176 185 193
186 145 261 12 31 24 24 23 20 23 26 30 31 33 39 45 50 53 52 53 57 63 69 75 80 88 93 96 98 114 115 121 126 132 135 139 141 140 138 142 148 158 167 171 174 181 186 201 211
221 214 249 278 315 349 5 9 11 14 16 24 27 33 38 44 48 51 53 53 56 62 67 71 77 82 90 96 96 103 113 119 123 124 128 136 137 140 141 147 151 159 174 180 187 196 201 210 221
225 226 246 262 277 310 337 346 355 359 1 10 21 29 30 37 44 47 49 53 56 59 63 69 78 86 91 96 98 101 111 120 121 124 123 130 137 139 142 149 156 163 170 184 201 211 228 237 241
231 235 244 252 258 276 301 317 334 341 347 356 9 20 22 30 38 40 43 49 50 50 55 63 77 87 89 93 99 102 105 112 123 125 131 135 142 155 161 169 176 179 181 188 202 214 230 240 246
233 238 238 245 260 273 288 310 315 324 336 343 351 2 11 19 30 35 36 39 41 44 49 57 71 83 85 87 91 95 101 104 111 124 141 147 158 171 182 192 201 199 203 206 198 210 219 240 249
236 238 238 249 259 271 270 291 298 305 320 327 328 337 345 358 13 20 26 30 33 36 42 51 60 73 79 79 84 89 99 106 109 119 145 174 187 193 197 227 221 224 221 215 227 241 255 257 256
232 238 244 252 257 266 270 274 287 290 298 307 315 318 324 336 349 353 357 10 24 35 40 45 55 64 73 82 83 83 84 90 93 82 124 226 228 224 226 234 225 224 227 229 241 253 264 266 273
236 239 246 255 261 265 266 264 271 281 279 282 293 302 304 309 321 328 328 336 356 18 26 33 49 57 64 76 70 61 61 61 56 31 346 300 264 247 245 236 233 239 245 251 256 261 266 267 271
236 239 248 252 254 259 263 263 264 265 264 272 280 284 286 289 295 299 296 306 312 318 330 347 351 351 352 7 9 360 358 359 351 335 324 316 300 278 258 253 255 255 256 259 260 263 265 267 268
236 237 241 244 250 257 264 262 261 259 260 266 273 275 276 278 277 278 277 277 283 289 294 303 302 296 291 292 295 301 312 320 325 318 309 308 300 289 276 267 267 268 269 265 264 265 267 268 271
237 238 241 247 251 254 258 262 260 258 263 260 262 270 273 270 268 273 277 275 277 282 286 290 289 288 279 276 280 284 290 297 304 310 304 296 291 290 282 273 273 275 275 273 270 270 270 271 273
237 239 240 242 247 251 258 261 260 257 262 261 259 260 263 267 272 274 274 274 278 280 283 285 286 283 278 275 275 276 282 288 292 295 297 293 291 289 286 280 273 272 271 271 273 275 274 273 275
236 237 240 243 245 249 256 261 258 257 258 258 258 260 259 265 270 271 272 273 274 278 280 280 280 279 278 273 272 273 277 282 283 282 283 282 283 283 283 282 279 274 272 272 273 276 278 276 276
238 240 242 243 248 250 251 256 258 255 253 255 256 258 260 265 269 269 269 271 273 274 274 275 276 275 275 272 270 271 274 276 276 276 277 279 280 280 278 278 280 279 278 277 276 276 278 277 277
Height
5886 5886 5885 5886 5886 5886 5885 5884 5883 5882 5881 5880 5879 5878 5878 5878 5878 5880 5877 5875 5875 5874 5873 5873 5872 5872 5872 5871 5871 5871 5870 5870 5870 5870 5870 5871 5871 5872 5873 5874 5875 5876 5877 5878 5880 5882 5884 5886 5887
5888 5888 5888 5888 5888 5888 5887 5885 5884 5883 5882 5880 5879 5879 5878 5878 5878 5877 5876 5875 5875 5874 5874 5873 5872 5872 5872 5871 5871 5871 5870 5870 5870 5870 5870 5871 5872 5872 5873 5874 5875 5877 5878 5879 5881 5883 5884 5886 5887
5891 5890 5891 5890 5890 5890 5888 5887 5885 5884 5882 5881 5881 5880 5880 5879 5878 5877 5876 5876 5875 5874 5874 5873 5873 5872 5872 5871 5871 5871 5870 5870 5870 5870 5871 5871 5872 5873 5873 5874 5876 5877 5878 5879 5881 5882 5884 5886 5888
5893 5893 5893 5894 5892 5891 5890 5888 5886 5885 5884 5882 5882 5881 5880 5879 5878 5878 5877 5876 5875 5874 5874 5873 5873 5873 5872 5872 5871 5871 5870 5870 5869 5870 5871 5871 5872 5873 5874 5875 5876 5877 5879 5879 5880 5882 5884 5886 5888
5895 5895 5897 5897 5895 5893 5891 5889 5888 5886 5885 5884 5883 5882 5881 5880 5879 5878 5877 5876 5876 5875 5874 5874 5873 5873 5872 5872 5871 5870 5869 5870 5870 5870 5871 5871 5872 5873 5874 5875 5877 5878 5879 5880 5880 5882 5884 5886 5888
5899 5899 5900 5899 5897 5895 5893 5891 5889 5888 5886 5885 5884 5883 5881 5880 5880 5879 5878 5877 5876 5875 5874 5873 5873 5873 5873 5872 5871 5870 5870 5870 5871 5871 5871 5872 5873 5874 5875 5876 5877 5878 5879 5880 5881 5882 5884 5886 5888
5902 5902 5902 5901 5899 5897 5895 5893 5891 5890 5888 5887 5885 5884 5882 5881 5880 5879 5878 5877 5876 5875 5874 5874 5874 5873 5873 5872 5871 5871 5871 5870 5871 5871 5872 5872 5873 5874 5875 5877 5878 5879 5879 5880 5881 5882 5884 5886 5888
5904 5905 5905 5903 5901 5900 5898 5895 5893 5891 5890 5888 5887 5885 5884 5882 5881 5880 5879 5878 5877 5876 5875 5874 5874 5873 5873 5872 5872 5871 5871 5871 5871 5872 5873 5873 5874 5875 5876 5878 5879 5879 5880 5881 5882 5883 5885 5886 5888
5906 5908 5907 5905 5903 5901 5899 5897 5895 5893 5892 5890 5888 5887 5885 5884 5882 5881 5880 5879 5878 5877 5876 5875 5875 5874 5874 5873 5873 5872 5872 5872 5872 5873 5873 5874 5875 5876 5876 5878 5879 5880 5882 5882 5883 5884 5886 5887 5888
5908 5910 5908 5906 5904 5903 5901 5899 5897 5895 5894 5892 5890 5888 5886 5885 5883 5882 5881 5880 5879 5878 5877 5876 5875 5875 5874 5874 5873 5873 5873 5873 5873 5873 5873 5874 5875 5877 5877 5879 5880 5881 5882 5883 5884 5886 5887 5889 5890
5910 5910 5909 5907 5906 5904 5902 5901 5899 5897 5896 5894 5892 5890 5888 5886 5885 5884 5882 5881 5880 5879 5878 5877 5876 5875 5875 5875 5875 5874 5874 5874 5874 5873 5873 5874 5876 5878 5879 5881 5882 5882 5883 5885 5886 5887 5888 5889 5890
5912 5911 5910 5909 5907 5906 5904 5903 5901 5899 5898 5896 5893 5891 5889 5888 5886 5885 5884 5882 5881 5880 5879 5878 5877 5877 5876 5876 5876 5876 5875 5875 5875 5874 5874 5876 5878 5879 5880 5882 5883 5884 5885 5886 5887 5889 5890 5891 5892
5913 5913 5912 5911 5909 5908 5906 5905 5903 5901 5899 5897 5895 5893 5891 5889 5888 5886 5885 5884 5882 5881 5880 5879 5878 5877 5877 5877 5877 5877 5877 5877 5877 5877 5877 5878 5879 5881 5882 5883 5885 5886 5886 5888 5889 5890 5891 5892 5893
5915 5914 5913 5912 5911 5909 5908 5907 5905 5903 5901 5899 5897 5895 5893 5891 5889 5888 5886 5885 5883 5882 5881 5880 5880 5879 5878 5879 5879 5879 5879 5879 5879 5879 5880 5880 5881 5883 5884 5885 5886 5887 5887 5888 5889 5890 5891 5892 5893
5915 5915 5915 5914 5912 5911 5910 5909 5907 5905 5902 5901 5899 5897 5895 5893 5891 5889 5888 5886 5885 5884 5883 5882 5881 5881 5880 5880 5880 5880 5881 5881 5881 5881 5882 5883 5884 5885 5886 5886 5887 5888 5888 5889 5890 5891 5892 5893 5894
5916 5917 5917 5915 5914 5912 5913 5911 5909 5906 5904 5902 5900 5898 5896 5894 5892 5891 5889 5888 5886 5885 5884 5883 5883 5883 5882 5882 5882 5882 5882 5883 5883 5883 5884 5885 5886 5886 5887 5888 5888 5888 5889 5890 5891 5891 5892 5893 5894
5917 5918 5918 5916 5915 5913 5913 5911 5910 5907 5906 5904 5902 5900 5898 5896 5894 5892 5891 5889 5888 5887 5886 5885 5885 5884 5884 5884 5884 5884 5884 5884 5885 5885 5885 5886 5887 5888 5888 5889 5889 5889 5889 5890 5891 5892 5892 5893 5894
5918 5918 5918 5916 5915 5914 5913 5912 5910 5908 5907 5905 5903 5901 5899 5898 5896 5894 5893 5891 5890 5889 5888 5887 5886 5886 5886 5886 5885 5885 5886 5886 5886 5887 5887 5888 5888 5889 5889 5890 5890 5890 5890 5891 5891 5892 5893 5893 5894
5915 5916 5917 5916 5915 5914 5913 5912 5910 5909 5907 5906 5904 5902 5901 5899 5897 5896 5894 5893 5891 5890 5889 5888 5888 5887 5887 5887 5887 5887 5887 5888 5888 5888 5888 5889 5889 5889 5890 5890 5890 5891 5891 5891 5892 5892 5892 5893 5893
5912 5914 5915 5914 5914 5913 5913 5912 5911 5909 5908 5906 5905 5903 5902 5900 5899 5897 5896 5894 5893 5892 5891 5890 5889 5889 5889 5889 5889 5889 5889 5889 5889 5889 5889 5889 5890 5890 5890 5891 5891 5891 5891 5892 5892 5892 5892 5892 5892
5910 5912 5913 5913 5913 5912 5912 5912 5911 5910 5908 5907 5905 5904 5903 5901 5900 5899 5897 5896 5894 5893 5892 5891 5891 5890 5890 5890 5890 5890 5890 5890 5890 5890 5890 5890 5890 5890 5891 5891 5891 5891 5891 5891 5892 5892 5892 5892 5892
5908 5909 5910 5911 5912 5912 5912 5913 5911 5909 5908 5907 5905 5904 5903 5902 5901 5900 5899 5897 5896 5895 5894 5893 5892 5891 5891 5891 5891 5891 5891 5891 5891 5890 5890 5891 5890 5890 5891 5891 5891 5891 5891 5891 5891 5891 5891 5891 5891
5905 5906 5907 5908 5909 5911 5910 5911 5911 5908 5907 5906 5905 5904 5903 5902 5902 5900 5899 5898 5897 5896 5895 5894 5893 5892 5892 5892 5892 5892 5892 5891 5891 5891 5891 5891 5890 5890 5890 5890 5890 5890 5891 5891 5891 5891 5890 5890 5890
5900 5903 5904 5905 5907 5909 5908 5909 5909 5907 5906 5905 5904 5903 5903 5902 5901 5900 5900 5899 5898 5897 5896 5895 5894 5894 5893 5893 5893 5892 5892 5892 5891 5891 5891 5890 5890 5890 5889 5889 5889 5890 5890 5890 5890 5890 5889 5889 5889
5897 5900 5903 5904 5905 5906 5905 5905 5906 5905 5904 5903 5903 5902 5901 5901 5900 5900 5899 5899 5898 5897 5896 5896 5895 5894 5894 5894 5893 5893 5892 5892 5892 5891 5890 5890 5889 5889 5889 5889 5889 5889 5889 5889 5889 5888 5888 5888 5888
5893 5897 5899 5902 5903 5904 5902 5902 5903 5902 5901 5901 5901 5900 5900 5899 5899 5899 5898 5898 5897 5897 5896 5895 5895 5894 5894 5894 5893 5893 5892 5892 5891 5891 5890 5889 5889 5888 5888 5888 5888 5887 5887 5887 5887 5887 5886 5886 5886
5888 5891 5894 5897 5897 5899 5899 5899 5899 5899 5899 5899 5899 5898 5898 5898 5897 5897 5897 5897 5896 5896 5895 5895 5894 5894 5893 5893 5893 5892 5892 5891 5891 5890 5889 5889 5888 5887 5887 5886 5886 5885 5885 5885 5885 5884 5884 5884 5883
5884 5886 5889 5891 5892 5894 5895 5896 5896 5896 5896 5896 5896 5896 5896 5896 5896 5896 5895 5895 5895 5894 5894 5894 5893 5893 5892 5892 5891 5891 5891 5890 5889 5889 5888 5887 5887 5886 5885 5885 5884 5883 5883 5883 5882 5882 5881 5881 5881
5878 5880 5882 5885 5887 5890 5891 5894 5892 5892 5893 5893 5893 5893 5893 5893 5893 5893 5893 5893 5893 5892 5892 5892 5891 5891 5890 5890 5889 5889 5889 5888 5887 5887 5886 5885 5884 5884 5883 5882 5881 5881 5880 5880 5879 5879 5878 5878 5877
5871 5874 5877 5880 5881 5883 5885 5890 5887 5888 5888 5888 5889 5889 5889 5889 5889 5889 5890 5889 5890 5890 5890 5889 5889 5888 5888 5887 5887 5887 5886 5886 5885 5884 5883 5883 5882 5881 5880 5879 5878 5878 5877 5877 5876 5875 5874 5874 5873